owner,sensor,date,latitude,longitude,vertical_datum,sea_water_temperature,qcFlag 
WAVCIS,ioos:station:WAVCIS:CSI16:2,2009-03-06T23:30:00Z,29.4012,-89.0355,10.0,16.436,11111222 
WAVCIS,ioos:station:WAVCIS:CSI16:2,2009-03-06T23:45:00Z,29.4012,-89.0355,10.0,16.465,11111222 
WAVCIS,ioos:station:WAVCIS:CSI16:2,2009-03-07T00:00:00Z,29.4012,-89.0355,10.0,16.483,11111222 
WAVCIS,ioos:station:WAVCIS:CSI16:2,2009-03-07T00:15:00Z,29.4012,-89.0355,10.0,16.549,11111222 
WAVCIS,ioos:station:WAVCIS:CSI16:2,2009-03-07T00:30:00Z,29.4012,-89.0355,10.0,16.552,11111222 
WAVCIS,ioos:station:WAVCIS:CSI16:2,2009-03-07T00:45:00Z,29.4012,-89.0355,10.0,16.531,11111222 
WAVCIS,ioos:station:WAVCIS:CSI16:2,2009-03-07T01:00:00Z,29.4012,-89.0355,10.0,16.508,11111222 
WAVCIS,ioos:station:WAVCIS:CSI16:2,2009-03-07T01:15:00Z,29.4012,-89.0355,10.0,16.472,11111222 
WAVCIS,ioos:station:WAVCIS:CSI16:2,2009-03-07T01:30:00Z,29.4012,-89.0355,10.0,16.459,11111222 
WAVCIS,ioos:station:WAVCIS:CSI16:2,2009-03-07T01:45:00Z,29.4012,-89.0355,10.0,16.49,11111222 
WAVCIS,ioos:station:WAVCIS:CSI16:2,2009-03-07T02:00:00Z,29.4012,-89.0355,10.0,16.494,11111222 
WAVCIS,ioos:station:WAVCIS:CSI16:2,2009-03-07T02:15:00Z,29.4012,-89.0355,10.0,16.51,11111222 
WAVCIS,ioos:station:WAVCIS:CSI16:2,2009-03-07T02:30:00Z,29.4012,-89.0355,10.0,16.503,11111222 
WAVCIS,ioos:station:WAVCIS:CSI16:2,2009-03-07T02:45:00Z,29.4012,-89.0355,10.0,16.505,11111222 
WAVCIS,ioos:station:WAVCIS:CSI16:2,2009-03-07T03:00:00Z,29.4012,-89.0355,10.0,16.457,11111222 
WAVCIS,ioos:station:WAVCIS:CSI16:2,2009-03-07T03:15:00Z,29.4012,-89.0355,10.0,16.405,11111222 
WAVCIS,ioos:station:WAVCIS:CSI16:2,2009-03-07T03:30:00Z,29.4012,-89.0355,10.0,16.4,11111222 
WAVCIS,ioos:station:WAVCIS:CSI16:2,2009-03-07T03:45:00Z,29.4012,-89.0355,10.0,16.423,11111222 
WAVCIS,ioos:station:WAVCIS:CSI16:2,2009-03-07T04:00:00Z,29.4012,-89.0355,10.0,16.396,11111222 
WAVCIS,ioos:station:WAVCIS:CSI16:2,2009-03-07T04:15:00Z,29.4012,-89.0355,10.0,16.308,11111222 
WAVCIS,ioos:station:WAVCIS:CSI16:2,2009-03-07T04:30:00Z,29.4012,-89.0355,10.0,16.289,11111222 
WAVCIS,ioos:station:WAVCIS:CSI16:2,2009-03-07T04:45:00Z,29.4012,-89.0355,10.0,16.29,11111222 
WAVCIS,ioos:station:WAVCIS:CSI16:2,2009-03-07T05:00:00Z,29.4012,-89.0355,10.0,16.295,11111222 
WAVCIS,ioos:station:WAVCIS:CSI16:2,2009-03-07T05:15:00Z,29.4012,-89.0355,10.0,16.288,11111222 
WAVCIS,ioos:station:WAVCIS:CSI16:2,2009-03-07T05:30:00Z,29.4012,-89.0355,10.0,16.295,11111222 
WAVCIS,ioos:station:WAVCIS:CSI16:2,2009-03-07T05:45:00Z,29.4012,-89.0355,10.0,16.308,11111222 
WAVCIS,ioos:station:WAVCIS:CSI16:2,2009-03-07T06:00:00Z,29.4012,-89.0355,10.0,16.29,11111222 
WAVCIS,ioos:station:WAVCIS:CSI16:2,2009-03-07T06:15:00Z,29.4012,-89.0355,10.0,16.298,11111222 
WAVCIS,ioos:station:WAVCIS:CSI16:2,2009-03-07T06:30:00Z,29.4012,-89.0355,10.0,16.298,11111222 
WAVCIS,ioos:station:WAVCIS:CSI16:2,2009-03-07T06:45:00Z,29.4012,-89.0355,10.0,16.272,11111222 
WAVCIS,ioos:station:WAVCIS:CSI16:2,2009-03-07T07:00:00Z,29.4012,-89.0355,10.0,16.243,11111222 
WAVCIS,ioos:station:WAVCIS:CSI16:2,2009-03-07T07:15:00Z,29.4012,-89.0355,10.0,16.182,11111222 
WAVCIS,ioos:station:WAVCIS:CSI16:2,2009-03-07T07:30:00Z,29.4012,-89.0355,10.0,16.184,11111222 
WAVCIS,ioos:station:WAVCIS:CSI16:2,2009-03-07T07:45:00Z,29.4012,-89.0355,10.0,16.127,11111222 
WAVCIS,ioos:station:WAVCIS:CSI16:2,2009-03-07T08:00:00Z,29.4012,-89.0355,10.0,16.112,11111222 
WAVCIS,ioos:station:WAVCIS:CSI16:2,2009-03-07T08:15:00Z,29.4012,-89.0355,10.0,16.117,11111222 
WAVCIS,ioos:station:WAVCIS:CSI16:2,2009-03-07T08:30:00Z,29.4012,-89.0355,10.0,16.129,11111222 
WAVCIS,ioos:station:WAVCIS:CSI16:2,2009-03-07T08:45:00Z,29.4012,-89.0355,10.0,16.094,11111222 
WAVCIS,ioos:station:WAVCIS:CSI16:2,2009-03-07T09:00:00Z,29.4012,-89.0355,10.0,16.095,11111222 
WAVCIS,ioos:station:WAVCIS:CSI16:2,2009-03-07T09:15:00Z,29.4012,-89.0355,10.0,16.145,11111222 
WAVCIS,ioos:station:WAVCIS:CSI16:2,2009-03-07T09:30:00Z,29.4012,-89.0355,10.0,16.048,11111222 
WAVCIS,ioos:station:WAVCIS:CSI16:2,2009-03-07T09:45:00Z,29.4012,-89.0355,10.0,16.082,11111222 
WAVCIS,ioos:station:WAVCIS:CSI16:2,2009-03-07T10:00:00Z,29.4012,-89.0355,10.0,16.063,11111222 
WAVCIS,ioos:station:WAVCIS:CSI16:2,2009-03-07T10:15:00Z,29.4012,-89.0355,10.0,16.031,11111222 
WAVCIS,ioos:station:WAVCIS:CSI16:2,2009-03-07T10:30:00Z,29.4012,-89.0355,10.0,16.05,11111222 
WAVCIS,ioos:station:WAVCIS:CSI16:2,2009-03-07T10:45:00Z,29.4012,-89.0355,10.0,16.096,11111222 
WAVCIS,ioos:station:WAVCIS:CSI16:2,2009-03-07T11:00:00Z,29.4012,-89.0355,10.0,16.214,11111222 
WAVCIS,ioos:station:WAVCIS:CSI16:2,2009-03-07T11:15:00Z,29.4012,-89.0355,10.0,16.263,11111222 
WAVCIS,ioos:station:WAVCIS:CSI16:2,2009-03-07T11:30:00Z,29.4012,-89.0355,10.0,16.209,11111222 
WAVCIS,ioos:station:WAVCIS:CSI16:2,2009-03-07T11:45:00Z,29.4012,-89.0355,10.0,16.271,11111222 
WAVCIS,ioos:station:WAVCIS:CSI16:2,2009-03-07T12:00:00Z,29.4012,-89.0355,10.0,16.179,11111222 
WAVCIS,ioos:station:WAVCIS:CSI16:2,2009-03-07T12:15:00Z,29.4012,-89.0355,10.0,16.144,11111222 
WAVCIS,ioos:station:WAVCIS:CSI16:2,2009-03-07T12:30:00Z,29.4012,-89.0355,10.0,16.115,11111222 
WAVCIS,ioos:station:WAVCIS:CSI16:2,2009-03-07T12:45:00Z,29.4012,-89.0355,10.0,16.085,11111222 
WAVCIS,ioos:station:WAVCIS:CSI16:2,2009-03-07T13:00:00Z,29.4012,-89.0355,10.0,16.13,11111222 
WAVCIS,ioos:station:WAVCIS:CSI16:2,2009-03-07T13:15:00Z,29.4012,-89.0355,10.0,16.156,11111222 
WAVCIS,ioos:station:WAVCIS:CSI16:2,2009-03-07T13:30:00Z,29.4012,-89.0355,10.0,16.11,11111222 
WAVCIS,ioos:station:WAVCIS:CSI16:2,2009-03-07T13:45:00Z,29.4012,-89.0355,10.0,16.13,11111222 
WAVCIS,ioos:station:WAVCIS:CSI16:2,2009-03-07T14:00:00Z,29.4012,-89.0355,10.0,16.09,11111222 
WAVCIS,ioos:station:WAVCIS:CSI16:2,2009-03-07T14:15:00Z,29.4012,-89.0355,10.0,16.144,11111222 
WAVCIS,ioos:station:WAVCIS:CSI16:2,2009-03-07T14:30:00Z,29.4012,-89.0355,10.0,16.162,11111222 
WAVCIS,ioos:station:WAVCIS:CSI16:2,2009-03-07T14:45:00Z,29.4012,-89.0355,10.0,16.167,11111222 
WAVCIS,ioos:station:WAVCIS:CSI16:2,2009-03-07T15:00:00Z,29.4012,-89.0355,10.0,16.184,11111222 
WAVCIS,ioos:station:WAVCIS:CSI16:2,2009-03-07T15:15:00Z,29.4012,-89.0355,10.0,16.143,11111222 
WAVCIS,ioos:station:WAVCIS:CSI16:2,2009-03-07T15:30:00Z,29.4012,-89.0355,10.0,16.15,11111222 
WAVCIS,ioos:station:WAVCIS:CSI16:2,2009-03-07T15:45:00Z,29.4012,-89.0355,10.0,16.134,11111222 
WAVCIS,ioos:station:WAVCIS:CSI16:2,2009-03-07T16:00:00Z,29.4012,-89.0355,10.0,16.143,11111222 
WAVCIS,ioos:station:WAVCIS:CSI16:2,2009-03-07T16:15:00Z,29.4012,-89.0355,10.0,16.135,11111222 
WAVCIS,ioos:station:WAVCIS:CSI16:2,2009-03-07T16:30:00Z,29.4012,-89.0355,10.0,16.155,11111222 
WAVCIS,ioos:station:WAVCIS:CSI16:2,2009-03-07T16:45:00Z,29.4012,-89.0355,10.0,16.182,11111222 
WAVCIS,ioos:station:WAVCIS:CSI16:2,2009-03-07T17:00:00Z,29.4012,-89.0355,10.0,16.188,11111222 
WAVCIS,ioos:station:WAVCIS:CSI16:2,2009-03-07T17:15:00Z,29.4012,-89.0355,10.0,16.208,11111222 
WAVCIS,ioos:station:WAVCIS:CSI16:2,2009-03-07T17:30:00Z,29.4012,-89.0355,10.0,16.245,11111222 
WAVCIS,ioos:station:WAVCIS:CSI16:2,2009-03-07T17:45:00Z,29.4012,-89.0355,10.0,16.263,11111222 
WAVCIS,ioos:station:WAVCIS:CSI16:2,2009-03-07T18:00:00Z,29.4012,-89.0355,10.0,16.313,11111222 
WAVCIS,ioos:station:WAVCIS:CSI16:2,2009-03-07T18:15:00Z,29.4012,-89.0355,10.0,16.313,11111222 
WAVCIS,ioos:station:WAVCIS:CSI16:2,2009-03-07T18:30:00Z,29.4012,-89.0355,10.0,16.372,11111222 
WAVCIS,ioos:station:WAVCIS:CSI16:2,2009-03-07T18:45:00Z,29.4012,-89.0355,10.0,16.424,11111222 
WAVCIS,ioos:station:WAVCIS:CSI16:2,2009-03-07T19:00:00Z,29.4012,-89.0355,10.0,16.463,11111222 
WAVCIS,ioos:station:WAVCIS:CSI16:2,2009-03-07T19:15:00Z,29.4012,-89.0355,10.0,16.512,11111222 
WAVCIS,ioos:station:WAVCIS:CSI16:2,2009-03-07T19:30:00Z,29.4012,-89.0355,10.0,16.563,11111222 
WAVCIS,ioos:station:WAVCIS:CSI16:2,2009-03-07T19:45:00Z,29.4012,-89.0355,10.0,16.877,11111222 
WAVCIS,ioos:station:WAVCIS:CSI16:2,2009-03-07T20:00:00Z,29.4012,-89.0355,10.0,16.682,11111222 
WAVCIS,ioos:station:WAVCIS:CSI16:2,2009-03-07T20:15:00Z,29.4012,-89.0355,10.0,17.178,11111222 
WAVCIS,ioos:station:WAVCIS:CSI16:2,2009-03-07T21:30:00Z,29.4012,-89.0355,10.0,17.493,11111222 
WAVCIS,ioos:station:WAVCIS:CSI16:2,2009-03-07T21:45:00Z,29.4012,-89.0355,10.0,17.47,11111222 
WAVCIS,ioos:station:WAVCIS:CSI16:2,2009-03-07T22:00:00Z,29.4012,-89.0355,10.0,17.213,11111222 
WAVCIS,ioos:station:WAVCIS:CSI16:2,2009-03-07T22:15:00Z,29.4012,-89.0355,10.0,16.95,11111222 
WAVCIS,ioos:station:WAVCIS:CSI16:2,2009-03-07T22:30:00Z,29.4012,-89.0355,10.0,17.906,11111222 
WAVCIS,ioos:station:WAVCIS:CSI16:2,2009-03-07T22:45:00Z,29.4012,-89.0355,10.0,17.49,11111222 
WAVCIS,ioos:station:WAVCIS:CSI16:2,2009-03-07T23:00:00Z,29.4012,-89.0355,10.0,17.516,11111222 
WAVCIS,ioos:station:WAVCIS:CSI16:2,2009-03-07T23:15:00Z,29.4012,-89.0355,10.0,17.118,11111222 
WAVCIS,ioos:station:WAVCIS:CSI16:2,2009-03-07T23:30:00Z,29.4012,-89.0355,10.0,17.233,11111222 
WAVCIS,ioos:station:WAVCIS:CSI16:2,2009-03-07T23:45:00Z,29.4012,-89.0355,10.0,17.293,11111222 
WAVCIS,ioos:station:WAVCIS:CSI16:2,2009-03-08T00:00:00Z,29.4012,-89.0355,10.0,17.441,11111222 
WAVCIS,ioos:station:WAVCIS:CSI16:2,2009-03-08T00:15:00Z,29.4012,-89.0355,10.0,17.273,11111222 
WAVCIS,ioos:station:WAVCIS:CSI16:2,2009-03-08T00:30:00Z,29.4012,-89.0355,10.0,17.36,11111222 
WAVCIS,ioos:station:WAVCIS:CSI16:2,2009-03-08T00:45:00Z,29.4012,-89.0355,10.0,17.444,11111222 
WAVCIS,ioos:station:WAVCIS:CSI16:2,2009-03-08T01:00:00Z,29.4012,-89.0355,10.0,17.528,11111222 
WAVCIS,ioos:station:WAVCIS:CSI16:2,2009-03-08T01:15:00Z,29.4012,-89.0355,10.0,17.565,11111222 
WAVCIS,ioos:station:WAVCIS:CSI16:2,2009-03-08T01:30:00Z,29.4012,-89.0355,10.0,17.621,11111222 
WAVCIS,ioos:station:WAVCIS:CSI16:2,2009-03-08T01:45:00Z,29.4012,-89.0355,10.0,17.719,11111222 
WAVCIS,ioos:station:WAVCIS:CSI16:2,2009-03-08T02:00:00Z,29.4012,-89.0355,10.0,17.798,11111222 
WAVCIS,ioos:station:WAVCIS:CSI16:2,2009-03-08T02:15:00Z,29.4012,-89.0355,10.0,17.829,11111222 
WAVCIS,ioos:station:WAVCIS:CSI16:2,2009-03-08T02:30:00Z,29.4012,-89.0355,10.0,17.847,11111222 
WAVCIS,ioos:station:WAVCIS:CSI16:2,2009-03-08T02:45:00Z,29.4012,-89.0355,10.0,17.863,11111222 
WAVCIS,ioos:station:WAVCIS:CSI16:2,2009-03-08T03:00:00Z,29.4012,-89.0355,10.0,17.801,11111222 
WAVCIS,ioos:station:WAVCIS:CSI16:2,2009-03-08T03:15:00Z,29.4012,-89.0355,10.0,17.86,11111222 
WAVCIS,ioos:station:WAVCIS:CSI16:2,2009-03-08T03:30:00Z,29.4012,-89.0355,10.0,17.87,11111222 
WAVCIS,ioos:station:WAVCIS:CSI16:2,2009-03-08T03:45:00Z,29.4012,-89.0355,10.0,17.784,11111222 
WAVCIS,ioos:station:WAVCIS:CSI16:2,2009-03-08T04:00:00Z,29.4012,-89.0355,10.0,17.78,11111222 
WAVCIS,ioos:station:WAVCIS:CSI16:2,2009-03-08T04:15:00Z,29.4012,-89.0355,10.0,17.809,11111222 
WAVCIS,ioos:station:WAVCIS:CSI16:2,2009-03-08T04:30:00Z,29.4012,-89.0355,10.0,17.905,11111222 
WAVCIS,ioos:station:WAVCIS:CSI16:2,2009-03-08T04:45:00Z,29.4012,-89.0355,10.0,17.724,11111222 
WAVCIS,ioos:station:WAVCIS:CSI16:2,2009-03-08T05:00:00Z,29.4012,-89.0355,10.0,17.651,11111222 
WAVCIS,ioos:station:WAVCIS:CSI16:2,2009-03-08T05:15:00Z,29.4012,-89.0355,10.0,17.599,11111222 
WAVCIS,ioos:station:WAVCIS:CSI16:2,2009-03-08T05:30:00Z,29.4012,-89.0355,10.0,17.507,11111222 
WAVCIS,ioos:station:WAVCIS:CSI16:2,2009-03-08T05:45:00Z,29.4012,-89.0355,10.0,17.457,11111222 
WAVCIS,ioos:station:WAVCIS:CSI16:2,2009-03-08T06:00:00Z,29.4012,-89.0355,10.0,17.242,11111222 
WAVCIS,ioos:station:WAVCIS:CSI16:2,2009-03-08T06:15:00Z,29.4012,-89.0355,10.0,17.081,11111222 
WAVCIS,ioos:station:WAVCIS:CSI16:2,2009-03-08T06:30:00Z,29.4012,-89.0355,10.0,16.992,11111222 
WAVCIS,ioos:station:WAVCIS:CSI16:2,2009-03-08T06:45:00Z,29.4012,-89.0355,10.0,16.958,11111222 
WAVCIS,ioos:station:WAVCIS:CSI16:2,2009-03-08T07:00:00Z,29.4012,-89.0355,10.0,16.98,11111222 
WAVCIS,ioos:station:WAVCIS:CSI16:2,2009-03-08T07:15:00Z,29.4012,-89.0355,10.0,17.021,11111222 
WAVCIS,ioos:station:WAVCIS:CSI16:2,2009-03-08T07:30:00Z,29.4012,-89.0355,10.0,17.046,11111222 
WAVCIS,ioos:station:WAVCIS:CSI16:2,2009-03-08T07:45:00Z,29.4012,-89.0355,10.0,17.157,11111222 
WAVCIS,ioos:station:WAVCIS:CSI16:2,2009-03-08T08:00:00Z,29.4012,-89.0355,10.0,17.121,11111222 
WAVCIS,ioos:station:WAVCIS:CSI16:2,2009-03-08T08:15:00Z,29.4012,-89.0355,10.0,17.11,11111222 
WAVCIS,ioos:station:WAVCIS:CSI16:2,2009-03-08T08:30:00Z,29.4012,-89.0355,10.0,17.106,11111222 
WAVCIS,ioos:station:WAVCIS:CSI16:2,2009-03-08T08:45:00Z,29.4012,-89.0355,10.0,16.947,11111222 
WAVCIS,ioos:station:WAVCIS:CSI16:2,2009-03-08T09:00:00Z,29.4012,-89.0355,10.0,16.794,11111222 
WAVCIS,ioos:station:WAVCIS:CSI16:2,2009-03-08T09:15:00Z,29.4012,-89.0355,10.0,16.813,11111222 
WAVCIS,ioos:station:WAVCIS:CSI16:2,2009-03-08T09:30:00Z,29.4012,-89.0355,10.0,16.78,11111222 
WAVCIS,ioos:station:WAVCIS:CSI16:2,2009-03-08T09:45:00Z,29.4012,-89.0355,10.0,16.756,11111222 
WAVCIS,ioos:station:WAVCIS:CSI16:2,2009-03-08T10:00:00Z,29.4012,-89.0355,10.0,16.708,11111222 
WAVCIS,ioos:station:WAVCIS:CSI16:2,2009-03-08T10:15:00Z,29.4012,-89.0355,10.0,16.719,11111222 
WAVCIS,ioos:station:WAVCIS:CSI16:2,2009-03-08T10:30:00Z,29.4012,-89.0355,10.0,16.704,11111222 
WAVCIS,ioos:station:WAVCIS:CSI16:2,2009-03-08T10:45:00Z,29.4012,-89.0355,10.0,16.674,11111222 
WAVCIS,ioos:station:WAVCIS:CSI16:2,2009-03-08T11:00:00Z,29.4012,-89.0355,10.0,16.671,11111222 
WAVCIS,ioos:station:WAVCIS:CSI16:2,2009-03-08T11:15:00Z,29.4012,-89.0355,10.0,16.672,11111222 
WAVCIS,ioos:station:WAVCIS:CSI16:2,2009-03-08T11:30:00Z,29.4012,-89.0355,10.0,16.675,11111222 
WAVCIS,ioos:station:WAVCIS:CSI16:2,2009-03-08T11:45:00Z,29.4012,-89.0355,10.0,16.672,11111222 
WAVCIS,ioos:station:WAVCIS:CSI16:2,2009-03-08T12:00:00Z,29.4012,-89.0355,10.0,16.678,11111222 
WAVCIS,ioos:station:WAVCIS:CSI16:2,2009-03-08T12:15:00Z,29.4012,-89.0355,10.0,16.699,11111222 
WAVCIS,ioos:station:WAVCIS:CSI16:2,2009-03-08T12:30:00Z,29.4012,-89.0355,10.0,16.711,11111222 
WAVCIS,ioos:station:WAVCIS:CSI16:2,2009-03-08T12:45:00Z,29.4012,-89.0355,10.0,16.722,11111222 
WAVCIS,ioos:station:WAVCIS:CSI16:2,2009-03-08T13:00:00Z,29.4012,-89.0355,10.0,16.77,11111222 
WAVCIS,ioos:station:WAVCIS:CSI16:2,2009-03-08T13:15:00Z,29.4012,-89.0355,10.0,16.845,11111222 
WAVCIS,ioos:station:WAVCIS:CSI16:2,2009-03-08T13:30:00Z,29.4012,-89.0355,10.0,16.853,11111222 
WAVCIS,ioos:station:WAVCIS:CSI16:2,2009-03-08T13:45:00Z,29.4012,-89.0355,10.0,16.889,11111222 
WAVCIS,ioos:station:WAVCIS:CSI16:2,2009-03-08T14:00:00Z,29.4012,-89.0355,10.0,16.951,11111222 
WAVCIS,ioos:station:WAVCIS:CSI16:2,2009-03-08T14:15:00Z,29.4012,-89.0355,10.0,17.06,11111222 
WAVCIS,ioos:station:WAVCIS:CSI16:2,2009-03-08T14:30:00Z,29.4012,-89.0355,10.0,17.133,11111222 
WAVCIS,ioos:station:WAVCIS:CSI16:2,2009-03-08T14:45:00Z,29.4012,-89.0355,10.0,17.174,11111222 
WAVCIS,ioos:station:WAVCIS:CSI16:2,2009-03-08T15:00:00Z,29.4012,-89.0355,10.0,17.207,11111222 
WAVCIS,ioos:station:WAVCIS:CSI16:2,2009-03-08T15:15:00Z,29.4012,-89.0355,10.0,17.234,11111222 
WAVCIS,ioos:station:WAVCIS:CSI16:2,2009-03-08T15:30:00Z,29.4012,-89.0355,10.0,17.244,11111222 
WAVCIS,ioos:station:WAVCIS:CSI16:2,2009-03-08T15:45:00Z,29.4012,-89.0355,10.0,17.3,11111222 
WAVCIS,ioos:station:WAVCIS:CSI16:2,2009-03-08T16:00:00Z,29.4012,-89.0355,10.0,17.321,11111222 
WAVCIS,ioos:station:WAVCIS:CSI16:2,2009-03-08T16:15:00Z,29.4012,-89.0355,10.0,17.333,11111222 
WAVCIS,ioos:station:WAVCIS:CSI16:2,2009-03-08T16:30:00Z,29.4012,-89.0355,10.0,17.367,11111222 
WAVCIS,ioos:station:WAVCIS:CSI16:2,2009-03-08T16:45:00Z,29.4012,-89.0355,10.0,17.381,11111222 
WAVCIS,ioos:station:WAVCIS:CSI16:2,2009-03-08T17:00:00Z,29.4012,-89.0355,10.0,17.388,11111222 
WAVCIS,ioos:station:WAVCIS:CSI16:2,2009-03-08T17:15:00Z,29.4012,-89.0355,10.0,17.395,11111222 
WAVCIS,ioos:station:WAVCIS:CSI16:2,2009-03-08T17:30:00Z,29.4012,-89.0355,10.0,17.4,11111222 
WAVCIS,ioos:station:WAVCIS:CSI16:2,2009-03-08T17:45:00Z,29.4012,-89.0355,10.0,17.41,11111222 
WAVCIS,ioos:station:WAVCIS:CSI16:2,2009-03-08T18:00:00Z,29.4012,-89.0355,10.0,17.412,11111222 
WAVCIS,ioos:station:WAVCIS:CSI16:2,2009-03-08T18:15:00Z,29.4012,-89.0355,10.0,17.413,11111222 
WAVCIS,ioos:station:WAVCIS:CSI16:2,2009-03-08T18:30:00Z,29.4012,-89.0355,10.0,17.416,11111222 
WAVCIS,ioos:station:WAVCIS:CSI16:2,2009-03-08T18:45:00Z,29.4012,-89.0355,10.0,17.413,11111222 
WAVCIS,ioos:station:WAVCIS:CSI16:2,2009-03-08T19:00:00Z,29.4012,-89.0355,10.0,17.41,11111222 
WAVCIS,ioos:station:WAVCIS:CSI16:2,2009-03-08T19:15:00Z,29.4012,-89.0355,10.0,17.398,11111222 
WAVCIS,ioos:station:WAVCIS:CSI16:2,2009-03-08T19:30:00Z,29.4012,-89.0355,10.0,17.378,11111222 
WAVCIS,ioos:station:WAVCIS:CSI16:2,2009-03-08T19:45:00Z,29.4012,-89.0355,10.0,17.337,11111222 
WAVCIS,ioos:station:WAVCIS:CSI16:2,2009-03-08T20:00:00Z,29.4012,-89.0355,10.0,17.353,11111222 
WAVCIS,ioos:station:WAVCIS:CSI16:2,2009-03-08T20:15:00Z,29.4012,-89.0355,10.0,17.344,11111222 
WAVCIS,ioos:station:WAVCIS:CSI16:2,2009-03-08T20:30:00Z,29.4012,-89.0355,10.0,17.343,11111222 
WAVCIS,ioos:station:WAVCIS:CSI16:2,2009-03-08T20:45:00Z,29.4012,-89.0355,10.0,17.326,11111222 
WAVCIS,ioos:station:WAVCIS:CSI16:2,2009-03-08T21:00:00Z,29.4012,-89.0355,10.0,17.3,11111222 
WAVCIS,ioos:station:WAVCIS:CSI16:2,2009-03-08T21:15:00Z,29.4012,-89.0355,10.0,17.232,11111222 
WAVCIS,ioos:station:WAVCIS:CSI16:2,2009-03-08T21:30:00Z,29.4012,-89.0355,10.0,17.138,11111222 
WAVCIS,ioos:station:WAVCIS:CSI16:2,2009-03-08T21:45:00Z,29.4012,-89.0355,10.0,17.186,11111222 
WAVCIS,ioos:station:WAVCIS:CSI16:2,2009-03-08T22:00:00Z,29.4012,-89.0355,10.0,16.959,11111222 
WAVCIS,ioos:station:WAVCIS:CSI16:2,2009-03-08T22:15:00Z,29.4012,-89.0355,10.0,17.194,11111222 
WAVCIS,ioos:station:WAVCIS:CSI16:2,2009-03-08T22:30:00Z,29.4012,-89.0355,10.0,17.204,11111222 
WAVCIS,ioos:station:WAVCIS:CSI16:2,2009-03-08T22:45:00Z,29.4012,-89.0355,10.0,16.968,11111222 
WAVCIS,ioos:station:WAVCIS:CSI16:2,2009-03-08T23:00:00Z,29.4012,-89.0355,10.0,16.997,11111222 
WAVCIS,ioos:station:WAVCIS:CSI16:2,2009-03-08T23:15:00Z,29.4012,-89.0355,10.0,16.918,11111222 
WAVCIS,ioos:station:WAVCIS:CSI16:2,2009-03-08T23:30:00Z,29.4012,-89.0355,10.0,16.923,11111222 
WAVCIS,ioos:station:WAVCIS:CSI16:2,2009-03-08T23:45:00Z,29.4012,-89.0355,10.0,17.051,11111222 
WAVCIS,ioos:station:WAVCIS:CSI16:2,2009-03-09T00:00:00Z,29.4012,-89.0355,10.0,16.989,11111222 
WAVCIS,ioos:station:WAVCIS:CSI16:2,2009-03-09T00:15:00Z,29.4012,-89.0355,10.0,17.061,11111222 
WAVCIS,ioos:station:WAVCIS:CSI16:2,2009-03-09T00:30:00Z,29.4012,-89.0355,10.0,17.062,11111222 
WAVCIS,ioos:station:WAVCIS:CSI16:2,2009-03-09T00:45:00Z,29.4012,-89.0355,10.0,17.093,11111222 
WAVCIS,ioos:station:WAVCIS:CSI16:2,2009-03-09T01:00:00Z,29.4012,-89.0355,10.0,17.084,11111222 
WAVCIS,ioos:station:WAVCIS:CSI16:2,2009-03-09T01:15:00Z,29.4012,-89.0355,10.0,17.076,11111222 
WAVCIS,ioos:station:WAVCIS:CSI16:2,2009-03-09T01:30:00Z,29.4012,-89.0355,10.0,17.053,11111222 
WAVCIS,ioos:station:WAVCIS:CSI16:2,2009-03-09T01:45:00Z,29.4012,-89.0355,10.0,17.079,11111222 
WAVCIS,ioos:station:WAVCIS:CSI16:2,2009-03-09T02:00:00Z,29.4012,-89.0355,10.0,17.101,11111222 
WAVCIS,ioos:station:WAVCIS:CSI16:2,2009-03-09T02:15:00Z,29.4012,-89.0355,10.0,17.085,11111222 
WAVCIS,ioos:station:WAVCIS:CSI16:2,2009-03-09T03:30:00Z,29.4012,-89.0355,10.0,17.099,11111222 
WAVCIS,ioos:station:WAVCIS:CSI16:2,2009-03-09T03:45:00Z,29.4012,-89.0355,10.0,17.098,11111222 
WAVCIS,ioos:station:WAVCIS:CSI16:2,2009-03-09T04:00:00Z,29.4012,-89.0355,10.0,17.066,11111222 
WAVCIS,ioos:station:WAVCIS:CSI16:2,2009-03-09T04:15:00Z,29.4012,-89.0355,10.0,17.055,11111222 
WAVCIS,ioos:station:WAVCIS:CSI16:2,2009-03-09T04:30:00Z,29.4012,-89.0355,10.0,17.047,11111222 
WAVCIS,ioos:station:WAVCIS:CSI16:2,2009-03-09T04:45:00Z,29.4012,-89.0355,10.0,17.031,11111222 
WAVCIS,ioos:station:WAVCIS:CSI16:2,2009-03-09T05:00:00Z,29.4012,-89.0355,10.0,17.033,11111222 
WAVCIS,ioos:station:WAVCIS:CSI16:2,2009-03-09T05:15:00Z,29.4012,-89.0355,10.0,17.02,11111222 
WAVCIS,ioos:station:WAVCIS:CSI16:2,2009-03-09T05:30:00Z,29.4012,-89.0355,10.0,17.018,11111222 
WAVCIS,ioos:station:WAVCIS:CSI16:2,2009-03-09T05:45:00Z,29.4012,-89.0355,10.0,17.011,11111222 
WAVCIS,ioos:station:WAVCIS:CSI16:2,2009-03-09T06:00:00Z,29.4012,-89.0355,10.0,16.998,11111222 
WAVCIS,ioos:station:WAVCIS:CSI16:2,2009-03-09T06:15:00Z,29.4012,-89.0355,10.0,16.986,11111222 
WAVCIS,ioos:station:WAVCIS:CSI16:2,2009-03-09T06:30:00Z,29.4012,-89.0355,10.0,16.981,11111222 
WAVCIS,ioos:station:WAVCIS:CSI16:2,2009-03-09T06:45:00Z,29.4012,-89.0355,10.0,16.985,11111222 
WAVCIS,ioos:station:WAVCIS:CSI16:2,2009-03-09T07:00:00Z,29.4012,-89.0355,10.0,16.993,11111222 
WAVCIS,ioos:station:WAVCIS:CSI16:2,2009-03-09T07:15:00Z,29.4012,-89.0355,10.0,17.027,11111222 
WAVCIS,ioos:station:WAVCIS:CSI16:2,2009-03-09T07:30:00Z,29.4012,-89.0355,10.0,17.025,11111222 
WAVCIS,ioos:station:WAVCIS:CSI16:2,2009-03-09T07:45:00Z,29.4012,-89.0355,10.0,17.015,11111222 
WAVCIS,ioos:station:WAVCIS:CSI16:2,2009-03-09T08:00:00Z,29.4012,-89.0355,10.0,17.018,11111222 
WAVCIS,ioos:station:WAVCIS:CSI16:2,2009-03-09T08:15:00Z,29.4012,-89.0355,10.0,17.005,11111222 
WAVCIS,ioos:station:WAVCIS:CSI16:2,2009-03-09T08:30:00Z,29.4012,-89.0355,10.0,17.015,11111222 
WAVCIS,ioos:station:WAVCIS:CSI16:2,2009-03-09T08:45:00Z,29.4012,-89.0355,10.0,17.032,11111222 
WAVCIS,ioos:station:WAVCIS:CSI16:2,2009-03-09T09:00:00Z,29.4012,-89.0355,10.0,17.053,11111222 
WAVCIS,ioos:station:WAVCIS:CSI16:2,2009-03-09T09:15:00Z,29.4012,-89.0355,10.0,17.042,11111222 
WAVCIS,ioos:station:WAVCIS:CSI16:2,2009-03-09T09:30:00Z,29.4012,-89.0355,10.0,17.076,11111222 
WAVCIS,ioos:station:WAVCIS:CSI16:2,2009-03-09T09:45:00Z,29.4012,-89.0355,10.0,17.065,11111222 
WAVCIS,ioos:station:WAVCIS:CSI16:2,2009-03-09T10:00:00Z,29.4012,-89.0355,10.0,17.08,11111222 
WAVCIS,ioos:station:WAVCIS:CSI16:2,2009-03-09T10:15:00Z,29.4012,-89.0355,10.0,17.09,11111222 
WAVCIS,ioos:station:WAVCIS:CSI16:2,2009-03-09T10:30:00Z,29.4012,-89.0355,10.0,17.105,11111222 
WAVCIS,ioos:station:WAVCIS:CSI16:2,2009-03-09T10:45:00Z,29.4012,-89.0355,10.0,17.129,11111222 
WAVCIS,ioos:station:WAVCIS:CSI16:2,2009-03-09T11:00:00Z,29.4012,-89.0355,10.0,17.141,11111222 
WAVCIS,ioos:station:WAVCIS:CSI16:2,2009-03-09T11:15:00Z,29.4012,-89.0355,10.0,17.112,11111222 
WAVCIS,ioos:station:WAVCIS:CSI16:2,2009-03-09T11:30:00Z,29.4012,-89.0355,10.0,17.134,11111222 
WAVCIS,ioos:station:WAVCIS:CSI16:2,2009-03-09T11:45:00Z,29.4012,-89.0355,10.0,17.124,11111222 
WAVCIS,ioos:station:WAVCIS:CSI16:2,2009-03-09T12:00:00Z,29.4012,-89.0355,10.0,17.149,11111222 
WAVCIS,ioos:station:WAVCIS:CSI16:2,2009-03-09T12:15:00Z,29.4012,-89.0355,10.0,17.169,11111222 
WAVCIS,ioos:station:WAVCIS:CSI16:2,2009-03-09T12:30:00Z,29.4012,-89.0355,10.0,17.154,11111222 
WAVCIS,ioos:station:WAVCIS:CSI16:2,2009-03-09T12:45:00Z,29.4012,-89.0355,10.0,17.144,11111222 
WAVCIS,ioos:station:WAVCIS:CSI16:2,2009-03-09T13:00:00Z,29.4012,-89.0355,10.0,17.146,11111222 
WAVCIS,ioos:station:WAVCIS:CSI16:2,2009-03-09T13:15:00Z,29.4012,-89.0355,10.0,17.145,11111222 
WAVCIS,ioos:station:WAVCIS:CSI16:2,2009-03-09T13:30:00Z,29.4012,-89.0355,10.0,17.147,11111222 
WAVCIS,ioos:station:WAVCIS:CSI16:2,2009-03-09T13:45:00Z,29.4012,-89.0355,10.0,17.128,11111222 
WAVCIS,ioos:station:WAVCIS:CSI16:2,2009-03-09T14:00:00Z,29.4012,-89.0355,10.0,17.121,11111222 
WAVCIS,ioos:station:WAVCIS:CSI16:2,2009-03-09T14:15:00Z,29.4012,-89.0355,10.0,17.131,11111222 
WAVCIS,ioos:station:WAVCIS:CSI16:2,2009-03-09T14:30:00Z,29.4012,-89.0355,10.0,17.137,11111222 
WAVCIS,ioos:station:WAVCIS:CSI16:2,2009-03-09T14:45:00Z,29.4012,-89.0355,10.0,17.12,11111222 
WAVCIS,ioos:station:WAVCIS:CSI16:2,2009-03-09T15:00:00Z,29.4012,-89.0355,10.0,17.101,11111222 
WAVCIS,ioos:station:WAVCIS:CSI16:2,2009-03-09T15:15:00Z,29.4012,-89.0355,10.0,17.104,11111222 
WAVCIS,ioos:station:WAVCIS:CSI16:2,2009-03-09T15:30:00Z,29.4012,-89.0355,10.0,17.063,11111222 
WAVCIS,ioos:station:WAVCIS:CSI16:2,2009-03-09T15:45:00Z,29.4012,-89.0355,10.0,17.077,11111222 
WAVCIS,ioos:station:WAVCIS:CSI16:2,2009-03-09T16:00:00Z,29.4012,-89.0355,10.0,17.088,11111222 
WAVCIS,ioos:station:WAVCIS:CSI16:2,2009-03-09T16:15:00Z,29.4012,-89.0355,10.0,17.079,11111222 